Regional Weather Roundup
Issued by NWS

Home | Current Version | Previous Version | Graphics & Text | Print | Product List | Glossary On
Versions: 1 2 3 4 5 6 7 8 9 10 11 12 13 14 15 16 17 18 19 20 21 22 23 24 25 26 27 28 29 30 31 32 33 34 35 36 37 38 39 40 41 42 43 44 45 46 47 48 49 50
000
ASUS43 KLOT 040212
RWRIL

ILLINOIS REGIONAL WEATHER ROUNDUP
NATIONAL WEATHER SERVICE CHICAGO/ROMEOVILLE IL
900 PM CDT MON AUG 03 2015

NOTE: "FAIR" INDICATES FEW OR NO CLOUDS BELOW 12,000 FEET WITH NO
SIGNIFICANT WEATHER AND/OR OBSTRUCTIONS TO VISIBILITY.

* THESE STATIONS ARE NOT UNDER NWS QUALITY CONTROL. THEY ALSO MAY NOT
  REPORT WEATHER SUCH AS PRECIPITATION OR FOG.

ILZ001-002-007-009-015-016-024-040300-
NORTHWEST ILLINOIS

CITY           SKY/WX    TMP DP  RH WIND       PRES   REMARKS
MOLINE         CLEAR     69  58  67 W3        29.92R
STERLING*      CLEAR     68  57  68 W5        29.89R
SAVANNA*       CLEAR     73  55  52 W6        29.91R
$$

ILZ003-004-008-010-011-017-018-040300-
NORTH CENTRAL ILLINOIS

CITY           SKY/WX    TMP DP  RH WIND       PRES   REMARKS
ROCKFORD       CLEAR     70  55  59 W6        29.90R
FREEPORT*      CLEAR     67  57  71 W5        29.92R
ROCHELLE*      CLEAR     66  57  74 W5        29.91R
DE KALB*       CLEAR     70  55  59 W8        29.91R
PERU*          CLEAR     68  56  66 W7        29.91R
$$

ILZ005-006-012>014-019>023-040300-
NORTHEAST ILLINOIS

CITY           SKY/WX    TMP DP  RH WIND       PRES   REMARKS
CHICAGO-OHARE  PTCLDY    73  52  47 W8        29.88R
CHICAGO-MIDWAY PTCLDY    76  51  41 W5        29.88R
AURORA         CLEAR     65  58  78 W5        29.90R
LANSING*       CLEAR     72  51  47 W6        29.89R
JOLIET*        CLEAR     69  57  64 CALM      29.90R
WAUKEGAN       PTCLDY    68  54  60 CALM      29.87R
DUPAGE AIRPORT CLEAR     70  54  56 W5        29.89R
KANKAKEE*      CLEAR     68  58  70 CALM      29.90R
WHEELING       CLEAR     75  49  39 W5        29.89R
MORRIS*        CLEAR     68  58  70 W5        29.89R
ROMEOVILLE*    CLEAR     69  54  57 W6        29.90R
NORTHERLY ISL    N/A     77  49  37 W8          N/A
$$

LMZ740>746-040300-
SOUTHERN LAKE MICHIGAN

STATION/POSITION SKY/WX   TEMP    WIND        PRES    VSBY  WAVE
                          AIR SEA DIR/SP/G                  HT/PER
                          (F)     (DEG/KT/KT) (MB)    (MI)  (FT/S)
HARRISON CRIB              78     300/ 15/ 18   N/A
BURNHAM HARBOR             77     310/  4/ 13   N/A
CALUMET HARBOR             77     250/  3/  9   N/A
BURNS HARBOR               76     100/  2/  3 1011.9R
MICHIGAN CITY              75     320/  1/  1   N/A
MICHIGAN CITY 6N           74 75  210/  4/  6   N/A           1/ 4
ST. JOSEPH                 75 74  310/  6/  8   N/A           1/ 4
$$

ILZ025>027-034>036-040-047-049-050-058-095>099-040300-
WEST-CENTRAL ILLINOIS

CITY           SKY/WX    TMP DP  RH WIND       PRES   REMARKS
QUINCY         PTCLDY    74  65  73 CALM      29.93R
GALESBURG*     CLEAR     68  61  76 W5        29.93R
MACOMB*        CLEAR     69  63  82 N5        29.95R
JACKSONVILLE*  CLEAR     75  70  84 CALM      29.92R
PITTSFIELD*    MOCLDY    76  66  72 CALM      29.93R
$$

ILZ028>032-037-038-041>044-048-051>054-059>061-040300-
CENTRAL ILLINOIS

CITY           SKY/WX    TMP DP  RH WIND       PRES   REMARKS
PONTIAC        CLEAR     68  62  79 W5        29.92R
BLOOMINGTON    CLEAR     74  60  61 N6        29.94R
DECATUR        CLEAR     75  62  64 NW7       29.92R
PEORIA         CLEAR     72  60  66 CALM      29.92R
LACON*         CLEAR     67  62  84 CALM      29.91R
LINCOLN*       CLEAR     73  62  67 CALM      29.91R
SPRINGFIELD    CLEAR     74  66  76 NW5       29.92R
TAYLORVILLE    CLEAR     70  68  94 CALM      29.92R
$$

ILZ033-039-045-046-055>057-062-063-040300-
EAST-CENTRAL ILLINOIS

CITY           SKY/WX    TMP DP  RH WIND       PRES   REMARKS
CHAMPAIGN      CLEAR     69  63  81 NW5       29.92R
DANVILLE*      CLEAR     68  62  79 NW6       29.89R
RANTOUL*       CLEAR     74  61  63 NW6       29.92R
MATTOON        CLEAR     73  64  73 W3        29.90R
PARIS*         CLEAR     70  65  84 CALM      29.91R
$$

ILZ079-100>102-040300-
SOUTHWEST ILLINOIS

CITY           SKY/WX    TMP DP  RH WIND       PRES   REMARKS
ALTON          CLEAR     77  66  69 NW6       29.91R
BELLEVILLE     CLEAR     80  71  74 CALM      29.90R HX  83
CAHOKIA*       CLEAR     81  69  67 CALM      29.90R HX  84
SPARTA*        CLEAR     83  71  66 CALM      29.92R HX  88
$$

ILZ064>066-069>071-074>076-080>082-084>086-088>090-092>094-040300-
SOUTH-CENTRAL ILLINOIS

CITY           SKY/WX    TMP DP  RH WIND       PRES   REMARKS
CARBONDALE     PTCLDY    82  73  74 SW6       29.90R HX  87
CAIRO*         CLEAR     78  74  87 CALM      29.90R HX  80
EFFINGHAM*     CLEAR     76  62  62 CALM      29.92R
MARION         PTCLDY    82  75  78 CALM      29.91S HX  89
MT. VERNON     CLEAR     75  66  73 CALM      29.91R
CENTRALIA*     CLEAR     75  67  76 CALM      29.91R
SALEM*         CLEAR     76  71  84 CALM      29.91R
METROPOLIS*    CLEAR     80  77  91 CALM      29.91R HX  87
$$

ILZ067-068-072-073-078-083-087-091-040300-
SOUTHEAST ILLINOIS

CITY           SKY/WX    TMP DP  RH WIND       PRES   REMARKS
LAWRENCEVILLE  CLEAR     80  69  69 N3        29.89R HX  83
FLORA*         CLEAR     78  67  68 NW5       29.91R HX  80
FAIRFIELD*     CLEAR     77  72  84 CALM      29.89R
HARRISBURG*    CLEAR     81  74  79 CALM      29.91R HX  85
ROBINSON*      CLEAR     73  68  86 NW3       29.90R
CARMI*         CLEAR     78  68  70 W3        29.89R HX  80
$$

ABBREVIATIONS USED IN REMARKS
   TC - TEMPERATURE IN CELSIUS
  WCI - WIND CHILL INDEX
   HX - HEAT INDEX
  VSB - VISIBILITY
$$




USA.gov is the U.S. government's official web portal to all federal, state and local government web resources and services.